LVFVY SADF-SAZS

Flight info

Callsign LVFVY
Flight time 2h 24m
Altitude 36000
Route TORUL UT654 ORERA ORERA1Q
Aircraft C510/L-SDFGRWY/LB1

Departure

Time 2026-04-20 23:25
Airport San Fernando Airport (SADF)

Arrival

Time 2026-04-21 01:49
Airport Teniente Luis Candelaria International Airport (SAZS)
Time Latitude Longitude Altitude Speed Heading
2026-04-20 23:05 -34.45560 -58.58403 12 ft 0 kts 195°
2026-04-20 23:20 -34.45562 -58.58404 12 ft 0 kts 214°
2026-04-20 23:20 -34.45561 -58.58416 12 ft 0 kts 285°
2026-04-20 23:20 -34.45552 -58.58450 12 ft 6 kts 287°
2026-04-20 23:20 -34.45555 -58.58504 12 ft 7 kts 243°
2026-04-20 23:21 -34.45580 -58.58561 12 ft 8 kts 244°
2026-04-20 23:21 -34.45608 -58.58626 12 ft 8 kts 244°
2026-04-20 23:21 -34.45639 -58.58698 12 ft 10 kts 244°
2026-04-20 23:21 -34.45672 -58.58779 12 ft 11 kts 244°
2026-04-20 23:22 -34.45711 -58.58865 12 ft 12 kts 240°
2026-04-20 23:22 -34.45750 -58.58961 12 ft 13 kts 238°
2026-04-20 23:22 -34.45796 -58.59063 12 ft 14 kts 243°
2026-04-20 23:22 -34.45842 -58.59172 12 ft 15 kts 245°
2026-04-20 23:23 -34.45893 -58.59291 12 ft 16 kts 242°
2026-04-20 23:23 -34.45951 -58.59419 12 ft 17 kts 239°
2026-04-20 23:23 -34.45997 -58.59528 12 ft 9 kts 243°
2026-04-20 23:23 -34.46026 -58.59601 11 ft 10 kts 248°
2026-04-20 23:24 -34.45983 -58.59684 12 ft 15 kts 347°
2026-04-20 23:24 -34.45818 -58.59515 12 ft 63 kts 45°
2026-04-20 23:24 -34.45329 -58.58955 97 ft 123 kts 47°
2026-04-20 23:24 -34.44606 -58.58216 568 ft 149 kts 44°
2026-04-20 23:25 -34.43713 -58.57302 1054 ft 185 kts 44°
2026-04-20 23:25 -34.42677 -58.56220 1597 ft 208 kts 44°
2026-04-20 23:25 -34.41525 -58.55000 2135 ft 229 kts 44°
2026-04-20 23:25 -34.40273 -58.53663 2666 ft 246 kts 44°
2026-04-20 23:26 -34.38966 -58.52253 3202 ft 258 kts 44°
2026-04-20 23:26 -34.37591 -58.50756 3497 ft 277 kts 45°
2026-04-20 23:26 -34.36104 -58.49129 3465 ft 293 kts 44°
2026-04-20 23:26 -34.34609 -58.47499 3433 ft 283 kts 44°
2026-04-20 23:27 -34.33165 -58.45931 3404 ft 277 kts 45°
2026-04-20 23:27 -34.31707 -58.44355 3400 ft 272 kts 45°
2026-04-20 23:27 -34.30649 -58.42524 3386 ft 261 kts 75°
2026-04-20 23:27 -34.30642 -58.40403 3398 ft 250 kts 110°
2026-04-20 23:28 -34.31646 -58.38750 3400 ft 244 kts 146°
2026-04-20 23:28 -34.33313 -58.38228 3793 ft 256 kts 184°
2026-04-20 23:28 -34.34970 -58.39082 4506 ft 260 kts 217°
2026-04-20 23:28 -34.36373 -58.40538 5210 ft 260 kts 220°
2026-04-20 23:29 -34.37751 -58.41974 5818 ft 262 kts 219°
2026-04-20 23:29 -34.39193 -58.43435 6408 ft 265 kts 219°
2026-04-20 23:29 -34.40635 -58.44886 6973 ft 268 kts 219°
2026-04-20 23:29 -34.42129 -58.46392 7531 ft 270 kts 219°
2026-04-20 23:30 -34.43619 -58.47900 8063 ft 273 kts 220°
2026-04-20 23:30 -34.45108 -58.49414 8572 ft 276 kts 220°
2026-04-20 23:30 -34.46621 -58.50957 9068 ft 279 kts 220°
2026-04-20 23:30 -34.48103 -58.52473 9536 ft 281 kts 220°
2026-04-20 23:31 -34.49611 -58.54018 9993 ft 284 kts 220°
2026-04-20 23:31 -34.51129 -58.55576 10437 ft 286 kts 220°
2026-04-20 23:31 -34.52640 -58.57127 10863 ft 289 kts 220°
2026-04-20 23:31 -34.54207 -58.58738 11289 ft 291 kts 221°
2026-04-20 23:32 -34.55817 -58.60393 11710 ft 293 kts 221°
2026-04-20 23:32 -34.57386 -58.62006 12104 ft 295 kts 221°
2026-04-20 23:32 -34.58960 -58.63621 12511 ft 296 kts 221°
2026-04-20 23:32 -34.60529 -58.65230 12913 ft 297 kts 221°
2026-04-20 23:33 -34.62113 -58.66856 13301 ft 298 kts 221°
2026-04-20 23:33 -34.63685 -58.68471 13670 ft 298 kts 221°
2026-04-20 23:33 -34.65276 -58.70105 14289 ft 291 kts 221°
2026-04-20 23:33 -34.66799 -58.71668 14806 ft 288 kts 222°
2026-04-20 23:34 -34.68353 -58.73265 15216 ft 289 kts 222°
2026-04-20 23:34 -34.69914 -58.74876 15593 ft 291 kts 221°
2026-04-20 23:34 -34.71419 -58.76427 15953 ft 292 kts 222°
2026-04-20 23:34 -34.72422 -58.77463 16192 ft 293 kts 222°
2026-04-20 23:35 -34.73979 -58.79070 16554 ft 293 kts 223°
2026-04-20 23:35 -34.77111 -58.82300 17207 ft 297 kts 223°
2026-04-20 23:35 -34.78704 -58.83941 17492 ft 299 kts 223°
2026-04-20 23:36 -34.80301 -58.85589 17766 ft 302 kts 224°
2026-04-20 23:36 -34.81912 -58.87254 18032 ft 304 kts 224°
2026-04-20 23:36 -34.83528 -58.88927 18284 ft 307 kts 224°
2026-04-20 23:36 -34.85150 -58.90610 18526 ft 309 kts 224°
2026-04-20 23:37 -34.86796 -58.92318 18849 ft 309 kts 224°
2026-04-20 23:37 -34.88427 -58.94007 19341 ft 304 kts 225°
2026-04-20 23:37 -34.90017 -58.95660 19724 ft 303 kts 225°
2026-04-20 23:37 -34.91624 -58.97342 20047 ft 304 kts 225°
2026-04-20 23:38 -34.93229 -58.99024 20353 ft 305 kts 225°
2026-04-20 23:38 -34.94838 -59.00710 20660 ft 306 kts 224°
2026-04-20 23:38 -34.96458 -59.02409 20964 ft 307 kts 224°
2026-04-20 23:38 -34.98070 -59.04096 21257 ft 308 kts 224°
2026-04-20 23:39 -34.99693 -59.05795 21554 ft 308 kts 224°
2026-04-20 23:39 -35.01315 -59.07492 22040 ft 301 kts 223°
2026-04-20 23:39 -35.02898 -59.09144 22550 ft 295 kts 223°
2026-04-20 23:39 -35.04473 -59.10790 22891 ft 296 kts 223°
2026-04-20 23:40 -35.06030 -59.12412 23156 ft 298 kts 223°
2026-04-20 23:40 -35.07621 -59.14063 23425 ft 300 kts 223°
2026-04-20 23:40 -35.09228 -59.15732 23703 ft 301 kts 223°
2026-04-20 23:40 -35.10822 -59.17389 23974 ft 302 kts 223°
2026-04-20 23:41 -35.12437 -59.19072 24239 ft 303 kts 223°
2026-04-20 23:41 -35.14054 -59.20758 24493 ft 305 kts 223°
2026-04-20 23:41 -35.15667 -59.22443 24740 ft 306 kts 223°
2026-04-20 23:41 -35.17299 -59.24150 24980 ft 307 kts 223°
2026-04-20 23:42 -35.18921 -59.25848 25213 ft 308 kts 223°
2026-04-20 23:42 -35.20552 -59.27558 25439 ft 309 kts 223°
2026-04-20 23:42 -35.22215 -59.29302 25664 ft 310 kts 224°
2026-04-20 23:42 -35.23842 -59.31009 25919 ft 310 kts 224°
2026-04-20 23:43 -35.25481 -59.32726 26431 ft 301 kts 224°
2026-04-20 23:43 -35.27074 -59.34392 26797 ft 299 kts 224°
2026-04-20 23:43 -35.28688 -59.36089 27037 ft 301 kts 224°
2026-04-20 23:43 -35.30288 -59.37775 27253 ft 303 kts 224°
2026-04-20 23:44 -35.31920 -59.39495 27487 ft 305 kts 224°
2026-04-20 23:44 -35.33541 -59.41203 27723 ft 306 kts 224°
2026-04-20 23:44 -35.35160 -59.42912 27953 ft 307 kts 224°
2026-04-20 23:44 -35.36621 -59.44790 28154 ft 303 kts 237°
2026-04-20 23:45 -35.37850 -59.46890 28385 ft 304 kts 237°
2026-04-20 23:45 -35.39105 -59.49015 28596 ft 305 kts 237°
2026-04-20 23:45 -35.40355 -59.51145 28797 ft 306 kts 237°
2026-04-20 23:45 -35.41622 -59.53302 29000 ft 307 kts 237°
2026-04-20 23:46 -35.42864 -59.55418 29196 ft 308 kts 237°
2026-04-20 23:46 -35.44128 -59.57573 29388 ft 309 kts 237°
2026-04-20 23:46 -35.45394 -59.59736 29575 ft 310 kts 237°
2026-04-20 23:46 -35.46667 -59.61911 29758 ft 311 kts 238°
2026-04-20 23:47 -35.47949 -59.64104 29936 ft 312 kts 238°
2026-04-20 23:47 -35.49213 -59.66271 30116 ft 312 kts 238°
2026-04-20 23:47 -35.50496 -59.68471 30299 ft 313 kts 238°
2026-04-20 23:47 -35.51770 -59.70655 30470 ft 314 kts 238°
2026-04-20 23:48 -35.53056 -59.72863 30635 ft 315 kts 238°
2026-04-20 23:48 -35.54355 -59.75095 30801 ft 316 kts 238°
2026-04-20 23:48 -35.55648 -59.77317 30961 ft 317 kts 238°
2026-04-20 23:48 -35.56951 -59.79557 31118 ft 317 kts 238°
2026-04-20 23:49 -35.58231 -59.81759 31267 ft 318 kts 238°
2026-04-20 23:49 -35.59524 -59.83988 31416 ft 319 kts 238°
2026-04-20 23:49 -35.60836 -59.86249 31562 ft 320 kts 238°
2026-04-20 23:49 -35.62115 -59.88453 31800 ft 317 kts 238°
2026-04-20 23:50 -35.63369 -59.90602 32408 ft 304 kts 239°
2026-04-20 23:50 -35.64578 -59.92677 32788 ft 299 kts 239°
2026-04-20 23:50 -35.65797 -59.94782 32962 ft 301 kts 239°
2026-04-20 23:50 -35.67011 -59.96887 33095 ft 304 kts 239°
2026-04-20 23:51 -35.68230 -59.99003 33264 ft 306 kts 239°
2026-04-20 23:51 -35.69479 -60.01168 33463 ft 306 kts 239°
2026-04-20 23:51 -35.70707 -60.03298 33656 ft 307 kts 239°
2026-04-20 23:51 -35.71942 -60.05439 33837 ft 308 kts 239°
2026-04-20 23:52 -35.73184 -60.07594 34012 ft 309 kts 239°
2026-04-20 23:52 -35.74413 -60.09728 34182 ft 310 kts 239°
2026-04-20 23:52 -35.75668 -60.11911 34350 ft 311 kts 239°
2026-04-20 23:52 -35.76912 -60.14075 34513 ft 311 kts 239°
2026-04-20 23:53 -35.78150 -60.16230 34673 ft 312 kts 239°
2026-04-20 23:53 -35.79407 -60.18418 34832 ft 313 kts 239°
2026-04-20 23:53 -35.80658 -60.20596 34985 ft 314 kts 239°
2026-04-20 23:53 -35.81923 -60.22800 35135 ft 315 kts 239°
2026-04-20 23:54 -35.83193 -60.25015 35285 ft 316 kts 239°
2026-04-20 23:54 -35.84451 -60.27208 35429 ft 316 kts 239°
2026-04-20 23:54 -35.85715 -60.29414 35568 ft 317 kts 239°
2026-04-20 23:54 -35.86998 -60.31654 35703 ft 318 kts 239°
2026-04-20 23:55 -35.88265 -60.33869 35837 ft 319 kts 239°
2026-04-20 23:55 -35.89533 -60.36091 35988 ft 319 kts 239°
2026-04-20 23:55 -35.90821 -60.38344 36119 ft 320 kts 239°
2026-04-20 23:56 -35.93380 -60.42822 36179 ft 320 kts 239°
2026-04-20 23:56 -35.95937 -60.47302 36179 ft 320 kts 239°
2026-04-20 23:57 -35.98487 -60.51776 36179 ft 320 kts 239°
2026-04-20 23:57 -36.01047 -60.56276 36179 ft 320 kts 239°
2026-04-20 23:58 -36.03593 -60.60757 36179 ft 320 kts 239°
2026-04-20 23:58 -36.06237 -60.65417 36180 ft 320 kts 240°
2026-04-20 23:59 -36.08846 -60.70024 36186 ft 320 kts 240°
2026-04-20 23:59 -36.11396 -60.74529 36183 ft 321 kts 240°
2026-04-21 00:00 -36.13945 -60.79056 36182 ft 321 kts 240°
2026-04-21 00:00 -36.16492 -60.83597 36182 ft 321 kts 240°
2026-04-21 00:01 -36.19028 -60.88126 36182 ft 321 kts 240°
2026-04-21 00:01 -36.21576 -60.92683 36181 ft 321 kts 240°
2026-04-21 00:02 -36.24114 -60.97229 36181 ft 321 kts 240°
2026-04-21 00:02 -36.26632 -61.01748 36181 ft 321 kts 240°
2026-04-21 00:03 -36.29173 -61.06313 36181 ft 321 kts 240°
2026-04-21 00:03 -36.31714 -61.10884 36180 ft 321 kts 240°
2026-04-21 00:04 -36.34246 -61.15443 36180 ft 321 kts 239°
2026-04-21 00:04 -36.36762 -61.19981 36180 ft 321 kts 239°
2026-04-21 00:05 -36.39292 -61.24541 36179 ft 320 kts 240°
2026-04-21 00:05 -36.41796 -61.29081 36178 ft 320 kts 240°
2026-04-21 00:06 -36.44307 -61.33640 36178 ft 320 kts 240°
2026-04-21 00:06 -36.46818 -61.38200 36178 ft 320 kts 240°
2026-04-21 00:07 -36.49318 -61.42741 36178 ft 320 kts 240°
2026-04-21 00:07 -36.51814 -61.47287 36180 ft 320 kts 240°
2026-04-21 00:08 -36.54334 -61.51874 36178 ft 320 kts 239°
2026-04-21 00:08 -36.56829 -61.56410 36179 ft 320 kts 239°
2026-04-21 00:09 -36.59336 -61.60978 36184 ft 320 kts 239°
2026-04-21 00:09 -36.61837 -61.65545 36194 ft 319 kts 240°
2026-04-21 00:10 -36.64354 -61.70154 36207 ft 320 kts 240°
2026-04-21 00:10 -36.66854 -61.74744 36196 ft 320 kts 240°
2026-04-21 00:11 -36.69355 -61.79332 36187 ft 321 kts 240°
2026-04-21 00:11 -36.71855 -61.83924 36183 ft 321 kts 240°
2026-04-21 00:12 -36.74355 -61.88525 36184 ft 321 kts 240°
2026-04-21 00:12 -36.76846 -61.93113 36191 ft 321 kts 240°
2026-04-21 00:13 -36.79346 -61.97728 36203 ft 321 kts 240°
2026-04-21 00:13 -36.81834 -62.02326 36209 ft 320 kts 240°
2026-04-21 00:14 -36.84333 -62.06952 36209 ft 321 kts 240°
2026-04-21 00:14 -36.86809 -62.11541 36209 ft 321 kts 240°
2026-04-21 00:15 -36.89302 -62.16167 36209 ft 321 kts 240°
2026-04-21 00:15 -36.91799 -62.20808 36205 ft 321 kts 240°
2026-04-21 00:16 -36.94289 -62.25442 36204 ft 321 kts 240°
2026-04-21 00:16 -36.96790 -62.30106 36207 ft 321 kts 240°
2026-04-21 00:17 -36.99292 -62.34797 36207 ft 321 kts 240°
2026-04-21 00:17 -37.01783 -62.39468 36207 ft 322 kts 239°
2026-04-21 00:18 -37.03157 -62.42046 36206 ft 322 kts 239°
2026-04-21 00:18 -37.05654 -62.46730 36204 ft 323 kts 238°
2026-04-21 00:19 -37.08172 -62.51453 36203 ft 324 kts 238°
2026-04-21 00:19 -37.10725 -62.56247 36204 ft 325 kts 238°
2026-04-21 00:20 -37.13220 -62.60930 36207 ft 326 kts 238°
2026-04-21 00:20 -37.15811 -62.65793 36208 ft 327 kts 238°
2026-04-21 00:21 -37.18362 -62.70596 36204 ft 329 kts 238°
2026-04-21 00:21 -37.20940 -62.75462 36199 ft 330 kts 238°
2026-04-21 00:22 -37.23490 -62.80278 36193 ft 330 kts 238°
2026-04-21 00:22 -37.26049 -62.85122 36187 ft 331 kts 238°
2026-04-21 00:23 -37.28610 -62.89983 36183 ft 331 kts 238°
2026-04-21 00:23 -37.31160 -62.94866 36186 ft 331 kts 238°
2026-04-21 00:24 -37.33716 -62.99755 36187 ft 330 kts 237°
2026-04-21 00:24 -37.36261 -63.04607 36186 ft 330 kts 236°
2026-04-21 00:25 -37.38828 -63.09487 36184 ft 330 kts 236°
2026-04-21 00:25 -37.41384 -63.14343 36182 ft 331 kts 235°
2026-04-21 00:26 -37.43950 -63.19202 36182 ft 331 kts 235°
2026-04-21 00:26 -37.46532 -63.24110 36183 ft 331 kts 235°
2026-04-21 00:27 -37.49103 -63.29020 36184 ft 332 kts 235°
2026-04-21 00:27 -37.51659 -63.33913 36183 ft 332 kts 235°
2026-04-21 00:28 -37.54213 -63.38815 36181 ft 332 kts 235°
2026-04-21 00:28 -37.56792 -63.43764 36181 ft 332 kts 235°
2026-04-21 00:29 -37.59341 -63.48665 36181 ft 332 kts 235°
2026-04-21 00:29 -37.61897 -63.53587 36180 ft 332 kts 235°
2026-04-21 00:30 -37.64422 -63.58456 36180 ft 332 kts 235°
2026-04-21 00:30 -37.66975 -63.63388 36180 ft 332 kts 235°
2026-04-21 00:31 -37.69496 -63.68270 36182 ft 332 kts 236°
2026-04-21 00:31 -37.72039 -63.73204 36182 ft 332 kts 236°
2026-04-21 00:32 -37.74571 -63.78122 36181 ft 332 kts 236°
2026-04-21 00:32 -37.77119 -63.83071 36181 ft 332 kts 236°
2026-04-21 00:33 -37.79650 -63.87994 36181 ft 332 kts 236°
2026-04-21 00:33 -37.82164 -63.92898 36181 ft 332 kts 236°
2026-04-21 00:34 -37.84687 -63.97824 36181 ft 332 kts 236°
2026-04-21 00:34 -37.87205 -64.02746 36180 ft 332 kts 236°
2026-04-21 00:35 -37.89726 -64.07681 36180 ft 332 kts 236°
2026-04-21 00:35 -37.92251 -64.12633 36180 ft 332 kts 236°
2026-04-21 00:36 -37.94762 -64.17566 36180 ft 332 kts 236°
2026-04-21 00:36 -37.97264 -64.22488 36180 ft 332 kts 236°
2026-04-21 00:37 -37.99800 -64.27485 36180 ft 332 kts 236°
2026-04-21 00:37 -38.02291 -64.32398 36179 ft 332 kts 236°
2026-04-21 00:38 -38.04800 -64.37357 36179 ft 332 kts 236°
2026-04-21 00:38 -38.07315 -64.42335 36179 ft 332 kts 236°
2026-04-21 00:39 -38.09816 -64.47292 36179 ft 332 kts 236°
2026-04-21 00:39 -38.12323 -64.52280 36182 ft 332 kts 236°
2026-04-21 00:40 -38.14803 -64.57225 36182 ft 332 kts 236°
2026-04-21 00:40 -38.17285 -64.62180 36182 ft 333 kts 236°
2026-04-21 00:41 -38.19779 -64.67170 36184 ft 333 kts 237°
2026-04-21 00:41 -38.22263 -64.72148 36183 ft 333 kts 237°
2026-04-21 00:42 -38.24767 -64.77166 36183 ft 333 kts 237°
2026-04-21 00:42 -38.27246 -64.82147 36184 ft 333 kts 237°
2026-04-21 00:43 -38.29731 -64.87183 36184 ft 332 kts 236°
2026-04-21 00:43 -38.32177 -64.92145 36184 ft 331 kts 235°
2026-04-21 00:44 -38.34632 -64.97134 36183 ft 329 kts 234°
2026-04-21 00:44 -38.37069 -65.02080 36183 ft 327 kts 233°
2026-04-21 00:45 -38.40700 -65.09400 36182 ft 325 kts 233°
2026-04-21 00:45 -38.43137 -65.14299 36182 ft 323 kts 233°
2026-04-21 00:46 -38.45557 -65.19189 36182 ft 323 kts 233°
2026-04-21 00:46 -38.47957 -65.24054 36180 ft 322 kts 233°
2026-04-21 00:47 -38.50337 -65.28906 36181 ft 322 kts 233°
2026-04-21 00:47 -38.52721 -65.33773 36180 ft 321 kts 233°
2026-04-21 00:48 -38.55103 -65.38643 36180 ft 321 kts 233°
2026-04-21 00:48 -38.57470 -65.43498 36181 ft 321 kts 233°
2026-04-21 00:49 -38.59858 -65.48387 36180 ft 321 kts 232°
2026-04-21 00:49 -38.62235 -65.53251 36180 ft 321 kts 232°
2026-04-21 00:50 -38.64607 -65.58117 36185 ft 320 kts 232°
2026-04-21 00:50 -38.66985 -65.63007 36190 ft 320 kts 232°
2026-04-21 00:51 -38.69367 -65.67921 36196 ft 320 kts 233°
2026-04-21 00:51 -38.71712 -65.72762 36202 ft 320 kts 233°
2026-04-21 00:52 -38.74083 -65.77664 36206 ft 320 kts 233°
2026-04-21 00:52 -38.76454 -65.82576 36206 ft 320 kts 233°
2026-04-21 00:53 -38.78813 -65.87470 36206 ft 320 kts 233°
2026-04-21 00:53 -38.81173 -65.92374 36206 ft 320 kts 233°
2026-04-21 00:54 -38.83534 -65.97288 36205 ft 320 kts 233°
2026-04-21 00:54 -38.85889 -66.02196 36205 ft 320 kts 233°
2026-04-21 00:55 -38.88251 -66.07127 36205 ft 320 kts 233°
2026-04-21 00:55 -38.90581 -66.12023 36204 ft 320 kts 233°
2026-04-21 00:56 -38.92923 -66.16970 36204 ft 320 kts 232°
2026-04-21 00:56 -38.95258 -66.21895 36203 ft 320 kts 232°
2026-04-21 00:57 -38.97599 -66.26837 36203 ft 320 kts 231°
2026-04-21 00:57 -38.99942 -66.31786 36202 ft 321 kts 231°
2026-04-21 00:58 -39.02275 -66.36723 36202 ft 321 kts 230°
2026-04-21 00:58 -39.04628 -66.41702 36202 ft 322 kts 230°
2026-04-21 00:59 -39.06977 -66.46649 36202 ft 322 kts 230°
2026-04-21 00:59 -39.09333 -66.51630 36201 ft 323 kts 230°
2026-04-21 01:00 -39.11691 -66.56628 36215 ft 323 kts 230°
2026-04-21 01:00 -39.14050 -66.61648 36215 ft 325 kts 230°
2026-04-21 01:01 -39.16446 -66.66760 36212 ft 326 kts 231°
2026-04-21 01:01 -39.18800 -66.71792 36212 ft 326 kts 231°
2026-04-21 01:02 -39.21169 -66.76862 36212 ft 327 kts 231°
2026-04-21 01:02 -39.23546 -66.81954 36211 ft 327 kts 231°
2026-04-21 01:03 -39.25914 -66.87044 36211 ft 327 kts 230°
2026-04-21 01:03 -39.28277 -66.92133 36293 ft 325 kts 230°
2026-04-21 01:04 -39.30628 -66.97195 36292 ft 326 kts 230°
2026-04-21 01:04 -39.33000 -67.02306 36293 ft 326 kts 230°
2026-04-21 01:05 -39.35357 -67.07392 36292 ft 324 kts 230°
2026-04-21 01:05 -39.37687 -67.12429 36291 ft 322 kts 231°
2026-04-21 01:06 -39.40006 -67.17448 36291 ft 319 kts 231°
2026-04-21 01:06 -39.42336 -67.22506 36290 ft 316 kts 231°
2026-04-21 01:07 -39.44614 -67.27482 36289 ft 314 kts 231°
2026-04-21 01:07 -39.46881 -67.32433 36289 ft 312 kts 231°
2026-04-21 01:08 -39.49106 -67.37293 36288 ft 310 kts 231°
2026-04-21 01:08 -39.51330 -67.42154 36288 ft 309 kts 231°
2026-04-21 01:09 -39.53565 -67.47044 36288 ft 308 kts 231°
2026-04-21 01:09 -39.55768 -67.51878 36288 ft 308 kts 231°
2026-04-21 01:10 -39.57967 -67.56710 36287 ft 307 kts 231°
2026-04-21 01:10 -39.60169 -67.61552 36287 ft 307 kts 231°
2026-04-21 01:11 -39.62364 -67.66393 36287 ft 307 kts 232°
2026-04-21 01:11 -39.64553 -67.71222 36288 ft 307 kts 231°
2026-04-21 01:12 -39.66738 -67.76045 36287 ft 307 kts 231°
2026-04-21 01:12 -39.68928 -67.80889 36287 ft 307 kts 232°
2026-04-21 01:13 -39.71112 -67.85731 36287 ft 307 kts 232°
2026-04-21 01:13 -39.73287 -67.90560 36286 ft 306 kts 232°
2026-04-21 01:14 -39.75468 -67.95409 36286 ft 306 kts 232°
2026-04-21 01:14 -39.77645 -68.00258 36285 ft 306 kts 232°
2026-04-21 01:15 -39.79814 -68.05096 36285 ft 306 kts 232°
2026-04-21 01:15 -39.82087 -68.09848 36286 ft 303 kts 229°
2026-04-21 01:16 -39.84433 -68.14458 36284 ft 303 kts 229°
2026-04-21 01:16 -39.86785 -68.19094 36284 ft 303 kts 229°
2026-04-21 01:17 -39.89142 -68.23743 36283 ft 303 kts 229°
2026-04-21 01:17 -39.91494 -68.28386 36283 ft 303 kts 229°
2026-04-21 01:18 -39.93843 -68.33028 36282 ft 303 kts 229°
2026-04-21 01:18 -39.96169 -68.37640 36192 ft 306 kts 229°
2026-04-21 01:19 -39.98508 -68.42276 36174 ft 305 kts 229°
2026-04-21 01:19 -40.00867 -68.46958 36173 ft 305 kts 229°
2026-04-21 01:20 -40.03203 -68.51601 36172 ft 304 kts 229°
2026-04-21 01:20 -40.05543 -68.56254 36172 ft 304 kts 229°
2026-04-21 01:21 -40.07881 -68.60912 36171 ft 303 kts 229°
2026-04-21 01:21 -40.10230 -68.65601 36175 ft 303 kts 229°
2026-04-21 01:22 -40.12555 -68.70249 36188 ft 304 kts 229°
2026-04-21 01:22 -40.14237 -68.73614 36188 ft 305 kts 229°
2026-04-21 01:23 -40.16572 -68.78294 36187 ft 306 kts 229°
2026-04-21 01:23 -40.18909 -68.82982 36187 ft 307 kts 229°
2026-04-21 01:24 -40.21250 -68.87687 36186 ft 307 kts 229°
2026-04-21 01:24 -40.23603 -68.92398 36186 ft 307 kts 230°
2026-04-21 01:25 -40.25957 -68.97110 36185 ft 307 kts 230°
2026-04-21 01:25 -40.28293 -69.01808 36184 ft 307 kts 231°
2026-04-21 01:26 -40.30638 -69.06542 35984 ft 313 kts 231°
2026-04-21 01:26 -40.31878 -69.09034 35204 ft 334 kts 232°
2026-04-21 01:26 -40.33189 -69.11677 34862 ft 343 kts 232°
2026-04-21 01:27 -40.35743 -69.16878 34825 ft 333 kts 232°
2026-04-21 01:27 -40.37013 -69.19430 34661 ft 328 kts 232°
2026-04-21 01:27 -40.38273 -69.21997 34221 ft 327 kts 232°
2026-04-21 01:28 -40.39526 -69.24556 33734 ft 328 kts 232°
2026-04-21 01:28 -40.40760 -69.27094 33222 ft 330 kts 232°
2026-04-21 01:28 -40.42021 -69.29692 32403 ft 342 kts 232°
2026-04-21 01:28 -40.43313 -69.32348 31741 ft 346 kts 231°
2026-04-21 01:29 -40.44629 -69.35046 31270 ft 345 kts 231°
2026-04-21 01:29 -40.45935 -69.37718 30890 ft 343 kts 231°
2026-04-21 01:29 -40.47221 -69.40346 30520 ft 342 kts 231°
2026-04-21 01:29 -40.48526 -69.43014 30130 ft 342 kts 231°
2026-04-21 01:30 -40.49821 -69.45660 29750 ft 342 kts 231°
2026-04-21 01:30 -40.51131 -69.48341 29383 ft 342 kts 231°
2026-04-21 01:30 -40.52441 -69.51022 29036 ft 342 kts 231°
2026-04-21 01:30 -40.53767 -69.53740 28700 ft 342 kts 231°
2026-04-21 01:31 -40.55081 -69.56435 28381 ft 342 kts 231°
2026-04-21 01:31 -40.56377 -69.59096 28080 ft 342 kts 231°
2026-04-21 01:31 -40.57666 -69.61748 27793 ft 342 kts 231°
2026-04-21 01:31 -40.58957 -69.64406 27521 ft 342 kts 231°
2026-04-21 01:32 -40.60186 -69.66938 27262 ft 342 kts 231°
2026-04-21 01:32 -40.61552 -69.69755 26991 ft 342 kts 231°
2026-04-21 01:32 -40.62900 -69.72540 26745 ft 341 kts 231°
2026-04-21 01:32 -40.64170 -69.75165 26527 ft 341 kts 231°
2026-04-21 01:33 -40.65467 -69.77847 26313 ft 340 kts 231°
2026-04-21 01:33 -40.66757 -69.80506 26111 ft 340 kts 231°
2026-04-21 01:33 -40.68020 -69.83110 25921 ft 340 kts 232°
2026-04-21 01:33 -40.69306 -69.85774 25736 ft 339 kts 232°
2026-04-21 01:34 -40.70592 -69.88444 25557 ft 339 kts 232°
2026-04-21 01:34 -40.71886 -69.91136 25383 ft 339 kts 232°
2026-04-21 01:34 -40.73156 -69.93779 25220 ft 339 kts 232°
2026-04-21 01:34 -40.74429 -69.96433 25065 ft 338 kts 232°
2026-04-21 01:35 -40.75698 -69.99081 24916 ft 338 kts 232°
2026-04-21 01:35 -40.76966 -70.01730 24774 ft 338 kts 232°
2026-04-21 01:35 -40.78223 -70.04357 24625 ft 336 kts 232°
2026-04-21 01:35 -40.79479 -70.06986 24395 ft 336 kts 232°
2026-04-21 01:36 -40.80740 -70.09621 24137 ft 337 kts 232°
2026-04-21 01:36 -40.81998 -70.12252 23952 ft 337 kts 232°
2026-04-21 01:36 -40.83273 -70.14925 23794 ft 336 kts 233°
2026-04-21 01:36 -40.84536 -70.17578 23638 ft 335 kts 233°
2026-04-21 01:37 -40.85783 -70.20199 23484 ft 335 kts 233°
2026-04-21 01:37 -40.87038 -70.22838 23334 ft 335 kts 233°
2026-04-21 01:37 -40.88290 -70.25473 23192 ft 334 kts 233°
2026-04-21 01:37 -40.89552 -70.28133 23055 ft 334 kts 233°
2026-04-21 01:38 -40.90800 -70.30763 22916 ft 334 kts 233°
2026-04-21 01:38 -40.92021 -70.33337 22779 ft 333 kts 233°
2026-04-21 01:38 -40.93256 -70.35944 22607 ft 332 kts 233°
2026-04-21 01:38 -40.94511 -70.38596 22382 ft 333 kts 233°
2026-04-21 01:39 -40.95733 -70.41180 22148 ft 326 kts 233°
2026-04-21 01:39 -40.96967 -70.43733 21630 ft 322 kts 236°
2026-04-21 01:39 -40.98122 -70.46120 21419 ft 297 kts 252°
2026-04-21 01:39 -40.98573 -70.48769 20857 ft 292 kts 255°
2026-04-21 01:40 -40.99740 -70.50996 20112 ft 304 kts 224°
2026-04-21 01:40 -41.01332 -70.52966 19400 ft 302 kts 228°
2026-04-21 01:40 -41.02771 -70.55016 18714 ft 300 kts 230°
2026-04-21 01:40 -41.04161 -70.57126 18031 ft 298 kts 231°
2026-04-21 01:41 -41.05511 -70.59199 17365 ft 297 kts 231°
2026-04-21 01:41 -41.06877 -70.61299 16692 ft 295 kts 230°
2026-04-21 01:41 -41.07708 -70.62576 16284 ft 294 kts 230°
2026-04-21 01:41 -41.08706 -70.64108 15794 ft 293 kts 230°
2026-04-21 01:42 -41.10070 -70.66200 15128 ft 291 kts 230°
2026-04-21 01:42 -41.11431 -70.68288 14467 ft 289 kts 230°
2026-04-21 01:42 -41.12783 -70.70358 13813 ft 288 kts 230°
2026-04-21 01:42 -41.14115 -70.72396 13171 ft 287 kts 229°
2026-04-21 01:43 -41.15421 -70.74394 12545 ft 286 kts 229°
2026-04-21 01:43 -41.16735 -70.76409 11917 ft 280 kts 229°
2026-04-21 01:43 -41.17989 -70.78332 11302 ft 265 kts 229°
2026-04-21 01:43 -41.19179 -70.80166 10701 ft 255 kts 230°
2026-04-21 01:44 -41.20291 -70.81976 10112 ft 248 kts 231°
2026-04-21 01:44 -41.21366 -70.83734 9536 ft 243 kts 231°
2026-04-21 01:44 -41.22437 -70.85488 8958 ft 240 kts 231°
2026-04-21 01:44 -41.23478 -70.87200 8391 ft 237 kts 232°
2026-04-21 01:45 -41.24054 -70.89226 7787 ft 237 kts 265°
2026-04-21 01:45 -41.23631 -70.91374 7183 ft 239 kts 295°
2026-04-21 01:45 -41.22899 -70.93350 6631 ft 236 kts 294°
2026-04-21 01:45 -41.22197 -70.95345 6211 ft 231 kts 293°
2026-04-21 01:46 -41.21529 -70.97276 6212 ft 221 kts 293°
2026-04-21 01:46 -41.20875 -70.99167 5901 ft 226 kts 293°
2026-04-21 01:46 -41.20196 -71.01141 5315 ft 230 kts 293°
2026-04-21 01:46 -41.19534 -71.03059 4726 ft 225 kts 293°
2026-04-21 01:47 -41.18882 -71.04939 4379 ft 213 kts 293°
2026-04-21 01:47 -41.18262 -71.06728 4078 ft 204 kts 293°
2026-04-21 01:47 -41.17689 -71.08377 3802 ft 186 kts 293°
2026-04-21 01:47 -41.17149 -71.09937 3550 ft 174 kts 292°
2026-04-21 01:48 -41.16657 -71.11348 3360 ft 154 kts 292°
2026-04-21 01:48 -41.16248 -71.12519 3151 ft 129 kts 292°
2026-04-21 01:48 -41.15872 -71.13591 2983 ft 124 kts 297°
2026-04-21 01:48 -41.15506 -71.14626 2826 ft 116 kts 291°
2026-04-21 01:49 -41.15197 -71.15530 2779 ft 95 kts 292°
2026-04-21 01:49 -41.14992 -71.16140 2777 ft 48 kts 294°
2026-04-21 01:49 -41.14928 -71.16307 2777 ft 3 kts 301°
2026-04-21 01:49 -41.14911 -71.16333 2777 ft 8 kts 332°
2026-04-21 01:50 -41.14843 -71.16312 2777 ft 5 kts 26°
2026-04-21 01:50 -41.14833 -71.16305 2777 ft 3 kts 21°
2026-04-21 01:50 -41.14780 -71.16281 2777 ft 5 kts 350°
2026-04-21 01:50 -41.14737 -71.16305 2777 ft 6 kts 331°
2026-04-21 01:51 -41.14726 -71.16327 2777 ft 4 kts 293°
2026-04-21 01:51 -41.14723 -71.16335 2777 ft 0 kts 294°